Find Optus B1

NORAD ID: 22087 Int'l Des: 1992-054 Owner: OPT Country: AU operational
HEOCIRCULAR

Live Position

Loading 3D Globe...

About Optus B1

Description loading...

Upcoming Passes

Passes for default location (London). Set your location on the main map for personalized predictions.

Altitude History

Loading altitude history...

Two-Line Element Set

1 22087U 92054A 26104.41322038 .00000073 00000-0 00000+0 0 9994
2 22087 12.8576 24.5916 0005777 113.0860 85.9161 0.99202608134073
Epoch: Apr 14, 2026 • Age: 12 hours

Current Status

Altitude 36090.8 km
Velocity 3.06 km/s
Sub-Earth Point 3.73°N, 130.15°W
Launch Date Aug 13, 1992
Age 33.6 years
Type other

Technical Details

Classification Payload
Mass 2900.00 kg
Dry Mass 1200.00 kg
Total Mass 2900.00 kg
Length 2.30 m
Diameter 2.30 m
Span 20.60 m
Shape Box + 2 Pan
Manufacturer HSES
Bus Type HS-601
Phase Status In Orbit
Owner/State OPT/AU

Most Searched